Regional Weather Roundup
Issued by NWS Lake Charles, LA

Home | Current Version | Previous Version | Text Only | Print | Product List | Glossary On
Versions: 1 2 3 4 5 6 7 8 9 10 11 12 13 14 15 16 17 18 19 20 21 22 23 24 25 26 27 28 29 30 31 32 33 34 35 36 37 38 39 40 41 42 43 44 45 46 47 48 49 50
059
ASUS44 KLCH 200310
RWRLCH
REGIONAL WEATHER ROUNDUP
NATIONAL WEATHER SERVICE LAKE CHARLES LA
900 PM CST THU JAN 19 2017

Note: "fair" indicates few or no clouds below 12,000 feet with no
significant weather and/or obstructions to visibility.


ACROSS SOUTHEAST TEXAS

CITY           SKY/WX    TMP DP  RH WIND       PRES   REMARKS
BEAUMONT       CLOUDY    63  59  87 S5        29.79R
BEAUMONT CITY  CLOUDY    63  60  91 CALM      29.79S
ORANGE         CLOUDY   N/A N/A N/A S3        29.81R
JASPER         CLOUDY    63  61  93 S3        29.80S
$$

ACROSS CENTRAL LOUISIANA

CITY           SKY/WX    TMP DP  RH WIND       PRES   REMARKS
LEESVILLE      CLOUDY    61  60  95 S6        29.77S
FULLERTON      CLOUDY    60  59  96 CALM      29.76S
ALEXANDRIA INT CLOUDY    61  60  97 S6        29.77F
ESLER FIELD    CLOUDY    57  57 100 SE3       29.79S FOG
DERIDDER       MOCLDY    61  60  96 CALM      29.80S
OAKDALE        CLOUDY    60  59  97 CALM      29.80R
OPELOUSAS      MOCLDY    59  58  97 CALM      29.80R
$$

ACROSS SOUTHWEST AND SOUTH CENTRAL LOUISIANA

CITY           SKY/WX    TMP DP  RH WIND       PRES   REMARKS
SULPHUR        CLOUDY    64  63  96 CALM      29.80S
LAKE CHARLES   CLOUDY    63  61  93 S3        29.79S
CHENNAULT INT  NOT AVBL
CAMERON PHI    CLOUDY    64  63  94 S6        29.79S
DEQUINCY       CLOUDY    62  60  93 S5        29.79S
JENNINGS       NOT AVBL
LAFAYETTE      MOCLDY    64  62  93 S5        29.80R
NEW IBERIA     PTCLDY    63  61  93 CALM      29.81R
ABBEVILLE      FAIR      61  61 100 CALM      29.81R
PATTERSON      CLEAR     61  60  97 SW6       29.82R
SALT POINT     NOT AVBL
$$

SELECTED SITES ACROSS THE REGION

CITY           SKY/WX    TMP DP  RH WIND       PRES   REMARKS
HOUSTON BUSH   CLOUDY    63  59  87 CALM      29.78R
HOUSTON HOBBY  MOCLDY    63  61  93 S3        29.78R
GALVESTON      MOCLDY    67  64  90 S9        29.79S
COLLEGE STAT   CLEAR     59  57  93 S9        29.74S
CONROE         CLOUDY    61  59  93 S7        29.77F
HUNTSVILLE     CLEAR     58  56  93 S8        29.75R
LUFKIN         CLOUDY    59  57  93 S6        29.75S
SHREVEPORT     PTCLDY    57  55  93 S6        29.72S
MONROE         CLOUDY    60  58  92 S7        29.77S
NATCHEZ MS     CLOUDY    59  55  88 S6        29.79S
BATON ROUGE    CLOUDY    63  62  97 S5        29.80R
N.O. INTL ARPT PTCLDY    63  62  97 S6        29.81R
SLIDELL        CLOUDY    62  62 100 CALM      29.81R
$$

MARINE REPORTS

STATION/POSITION TIME  SKY/WX   TEMP    WIND        PRES    VSBY
                                AIR SEA DIR/SP/G
                 (UTC)          (F)     (DEG/KT/KT) (MB)    (MI)
BUOY 30 S HIGH I 0250            67 67  200/ 10/ 10 1008.7R
WVE H/P(F/S)=  2/ 7

SEA RIM ST PARK  0200            63     190/  5/  6 1009.1R
PORT ARTHUR      0248               64  210/  4/  5 1009.1R
SABINE PASS N    0242            64 67  190/  5/  6 1010.1R
TEXAS POINT      NOT AVBL
CALCASIEU PASS   0248               65  210/  7/  9   N/A
LK CHARLES BEACH 0248            63 66              1009.3R
MARSH ISLAND     0200            64                   N/A
FRESH WATER LOCK 0248               68  160/  6/  7 1009.9R
AMERADA PASS     0248            63 55  170/  2/  3 1009.3F
$$




USA.gov is the U.S. government's official web portal to all federal, state and local government web resources and services.